User: anonymous   Login
Location: Unspecified
(0.0000°N, 0.0000°E)
Time: 06:49:21
(UTC+00:00)
Language:

GEESAT 5-04 - Orbit

View from above orbital plane
View from above orbital plane
View from above satellite
View from above satellite

Ground track
Ground track

The orbit is defined by the following mean orbital elements,

1 65553U          26145.28005911 +.00000000 +00000-0 +14698-3 0 00002
2 65553  49.9842 146.1958 0008083 185.1860 174.8996 14.84130301    03
Epoch (UTC): 25 May 2026 06:43:17
Eccentricity: 0.0008083
inclination: 49.9842°
perigee height: 611 km
apogee height: 622 km
right ascension of ascending node: 146.1958°
argument of perigee: 185.1860°
revolutions per day: 14.84130301
mean anomaly at epoch: 174.8996°

The dashed part of the orbit path shows where the satellite is in the earth's shadow,  

DLR